Volver al catálogo

ARIANE 5 R/B

ActivoGTO
NORAD 43176·ROCKET BODY·🇫🇷 France

Lanzado Jan 25, 2018 desde Guiana Space Centre

Loading…

TLE

ObsoletoSource: Space-Track

Época: Sep 14, 2026, 02:59 UTC

1 43176U 18012C   26257.12475108  .00003709  00000-0  16584-2 0  9998
2 43176  21.6331 300.1964 7467089 230.8031  35.4984  2.04825997 61141

Sigue ARIANE 5 R/B en tiempo real con AllMySat

Download on the App Store